User: anonymous   Login
Location: Igon
(43.1667°N, 0.2333°W)
Time: 10:54:16
(UTC+00:00)
Language:

FALCON 9 DEB - Orbit

View from above orbital plane
View from above orbital plane
View from above satellite
View from above satellite

Ground track
Ground track

The orbit data is extracted from the following two-line orbital elements,

1 46084U 20055BK  21063.52281775  .00017944  00000-0  21139-3 0  9997
2 46084  53.0150 352.4797 0011015 260.3647  99.6121 15.61431008 37255
Epoch (UTC): 04 March 2021 12:32:51
Eccentricity: 0.0011015
inclination: 53.0150°
perigee height: 376 km
apogee height: 391 km
right ascension of ascending node: 352.4797°
argument of perigee: 260.3647°
revolutions per day: 15.61431008
mean anomaly at epoch: 99.6121°
orbit number at epoch: 3725

The dashed part of the orbit path shows where the satellite is in the earth's shadow,  

DLR